Regional Weather Roundup
Issued by NWS

Home | Current Version | Previous Version | Text Only | Print | Product List | Glossary On
Versions: 1 2 3 4 5 6 7 8 9 10 11 12 13 14 15 16 17 18 19 20 21 22 23 24 25 26 27 28 29 30 31 32 33 34 35 36 37 38 39 40 41 42 43 44 45 46 47 48 49 50
000
ASUS44 KOUN 280310
RWROK

WEATHER ROUNDUP FOR OKLAHOMA
NATIONAL WEATHER SERVICE NORMAN OK
1000 PM CDT WED AUG 27 2014

NOTE: "FAIR" INDICATES FEW OR NO CLOUDS BELOW 12,000 FEET WITH NO
      SIGNIFICANT WEATHER AND/OR OBSTRUCTIONS TO VISIBILITY.

OKZ001>007-009>012-014-015-017-280400-
NORTHWEST OKLAHOMA AND THE PANHANDLE

CITY           SKY/WX    TMP DP  RH WIND       PRES   REMARKS
GAGE           LGT RAIN  72  70  93 S12       30.03F
ENID/WOODRING  PTCLDY    79  64  61 SE6       29.99R
$$

OKZ016-021>023-033>039-044-045-280400-
SOUTHWEST OKLAHOMA

CITY           SKY/WX    TMP DP  RH WIND       PRES   REMARKS
LAWTON/REGL    PTCLDY    87  63  44 SE12      30.00R
LAWTON/FT SILL PTCLDY    86  65  48 SE9       30.00R
FREDERICK      MOCLDY    87  62  43 SE13      29.97R
CLINTON        CLOUDY    87  59  38 SE10      30.04R
HOBART         CLOUDY    87  62  43 SE15      30.01R
ALTUS AFB      CLEAR     86  63  46 SE10      30.00R
$$

OKZ018>020-024>031-280400-
CENTRAL OKLAHOMA

CITY           SKY/WX    TMP DP  RH WIND       PRES   REMARKS
OKLAHOMA CITY  PTCLDY    83  65  54 SE8       30.02R
OKC/WILEY POST CLEAR     86  66  51 SE12      30.02R
OKC/TINKER AFB CLEAR     80  67  63 SE6       30.03R
STILLWATER     CLEAR     82  64  54 S8        30.01R
GUTHRIE        CLEAR     84  66  54 SE7       30.01R
$$

OKZ008-013-054>072-280400-
NORTHEAST OKLAHOMA

CITY           SKY/WX    TMP DP  RH WIND       PRES   REMARKS
TULSA          MOCLDY    85  69  58 SE3       30.00R
TULSA/JONES    CLEAR     79  71  76 CALM      30.01R
PONCA CITY     MOCLDY    83  65  54 SE9       30.00R
BARTLESVILLE   CLEAR     75  69  81 CALM      30.02R
MUSKOGEE       CLEAR     80  68  66 E3        30.02R
$$

OKZ032-040>043-046>053-073>077-280400-
SOUTH CENTRAL/SOUTHEAST OKLAHOMA

CITY           SKY/WX    TMP DP  RH WIND       PRES   REMARKS
ARDMORE/DWNTWN CLEAR     81  63  54 CALM      30.01R
MCALESTER      CLEAR     81  69  67 S5        30.03R
$$




USA.gov is the U.S. government's official web portal to all federal, state and local government web resources and services.